Terminal Aerodrome Forecast
Issued by NWS Cleveland, OH

Home | Current Version | Previous Version | Text Only | Print | Product List | Glossary On
Versions: 1 2 3 4 5 6 7 8 9 10 11 12 13 14 15 16 17 18 19
000
FTUS41 KCLE 271400 AAA
TAFYNG
TAF AMD
KYNG 271420Z 2714/2812 32008KT 4SM -SHSN SCT005 OVC015
      TEMPO 2714/2716 1SM -SHSN OVC005
     FM271700 30008KT P6SM OVC025
     FM272300 30008KT P6SM OVC012
      TEMPO 2723/2802 3SM -SHSN=

USA.gov is the U.S. government's official web portal to all federal, state and local government web resources and services.